GEFSNGP_850_meantemp_270.txt.gz
Temperature
19 20 21 21 21 20 20 19 19 20 20 21 20 20 21 22 22 23 23 23 23 23 23 23 22 22 22 21 21 20 20 20 20 20 20 20 20 19 19 19 18 18 18 18
19 20 20 21 21 21 21 20 20 20 20 20 21 21 21 22 22 22 22 22 23 23 23 23 23 22 22 22 21 20 20 20 20 20 20 20 19 19 19 19 18 18 18 18
18 19 20 20 20 21 21 20 20 20 21 20 20 20 21 22 22 22 22 23 23 23 23 23 23 22 22 22 21 21 20 20 20 20 20 20 19 19 19 19 18 18 18 18
15 18 20 20 20 20 20 20 19 20 19 19 20 21 22 23 22 23 23 23 23 23 23 23 23 22 22 22 21 21 21 20 20 20 20 20 19 19 19 19 18 18 18 18
14 17 18 19 20 20 20 20 19 19 19 19 20 20 21 22 23 23 23 24 24 23 23 23 23 22 22 22 21 21 21 21 21 20 20 20 19 19 19 19 19 18 18 18
14 17 18 19 20 20 20 20 19 19 18 19 19 19 20 22 22 23 23 23 23 23 23 23 23 22 22 21 21 21 21 21 21 20 20 20 20 19 19 19 19 18 18 18
15 16 17 18 19 20 20 20 19 19 19 19 19 19 21 21 22 22 23 23 23 23 23 22 22 22 21 21 21 21 21 21 20 20 20 20 20 19 19 19 18 18 18 17
14 16 17 18 18 18 18 19 19 19 19 19 19 20 21 21 21 22 22 22 23 23 22 22 22 22 21 21 21 21 20 20 20 20 20 20 19 19 19 18 18 18 17 17
14 15 16 17 17 18 18 18 18 19 19 19 19 20 20 20 21 21 22 22 22 22 22 21 21 21 21 21 21 20 20 20 20 20 20 19 19 19 18 18 18 18 17 17
13 14 15 16 17 18 18 19 19 19 19 19 19 19 20 20 20 21 21 21 21 21 21 21 21 21 21 20 20 20 20 20 19 19 19 19 19 18 18 18 18 18 17 17
13 14 15 16 17 17 18 18 19 19 19 19 19 19 19 19 20 20 20 20 20 20 20 20 20 20 20 20 19 19 19 19 19 19 19 19 18 18 18 18 18 17 17 17
14 14 14 16 17 17 18 18 18 18 18 18 19 18 19 19 19 19 19 20 20 20 20 20 20 20 20 19 19 19 19 19 19 19 18 18 18 18 18 17 17 17 17 17
15 16 16 16 17 17 18 18 18 18 18 18 18 18 18 18 18 19 19 19 19 19 19 19 19 19 19 19 19 18 18 19 18 18 18 18 18 17 17 17 17 16 16 16
16 16 15 16 16 17 17 17 17 18 18 18 18 18 18 18 18 18 18 18 18 18 18 18 18 19 19 19 18 18 18 18 18 18 18 17 17 17 17 17 16 16 16 16
16 16 16 16 16 16 17 17 17 17 17 17 17 17 17 17 17 17 17 18 18 18 18 18 18 18 18 18 18 18 17 17 17 17 17 17 16 16 16 16 16 15 15 15
15 16 16 16 16 16 16 17 17 16 16 17 17 16 17 17 17 17 17 17 17 18 18 18 17 17 17 17 17 17 17 17 16 16 16 16 16 16 16 15 15 15 15 14
15 15 15 15 16 16 16 16 16 16 16 16 16 16 16 16 17 17 17 17 17 17 17 17 17 17 17 17 17 17 16 16 16 16 16 16 15 15 15 15 15 15 14 14
15 15 15 16 16 16 15 16 16 16 16 16 16 16 16 16 16 16 16 16 16 17 17 17 17 17 17 17 17 16 16 16 16 16 16 15 15 15 15 14 14 14 14 14
15 15 15 15 15 15 15 15 16 16 16 16 16 16 16 16 16 16 16 16 16 16 16 16 16 16 16 16 16 16 16 15 15 15 15 15 15 14 14 14 14 14 14 14
15 15 15 15 15 15 15 15 15 15 15 15 15 15 15 15 15 15 15 15 15 15 15 15 15 15 15 15 15 15 15 15 15 14 14 14 14 14 14 14 13 13 13 13
15 15 15 15 15 15 15 15 15 15 15 15 15 15 15 15 15 15 15 15 15 15 15 15 15 15 15 15 15 15 14 14 14 14 14 14 14 14 13 13 13 13 13 13
14 14 14 14 14 14 14 14 15 15 14 14 14 14 14 15 14 14 14 14 14 14 14 14 14 14 14 14 14 14 14 14 14 14 14 14 13 13 13 13 13 12 12 12
14 14 14 14 14 14 14 14 14 14 14 14 14 14 14 14 14 14 14 14 14 14 14 14 14 14 14 13 13 13 13 13 13 13 13 13 13 13 12 12 12 12 12 11
13 13 13 13 13 13 14 14 14 14 14 14 14 14 14 14 14 14 14 14 13 13 13 13 13 13 13 13 13 13 13 13 13 12 12 12 12 12 12 12 11 11 11 11
13 13 13 13 13 13 13 13 13 13 13 13 13 13 13 13 13 13 13 13 13 13 13 13 13 12 12 12 12 12 12 12 12 12 12 12 11 11 11 11 11 11 10 10
13 13 13 13 13 13 13 13 13 13 13 13 13 13 13 13 13 13 13 12 12 12 12 12 12 12 12 12 12 12 11 11 11 11 11 11 11 11 11 10 10 10 10 10
12 12 12 12 12 13 13 13 13 12 12 13 13 13 13 12 12 12 12 12 12 11 12 11 11 11 11 11 11 11 11 11 11 11 10 10 10 10 10 10 9 9 9 9

GEFSNGP_850_meantemp_276.txt.gz
Temperature
29 29 29 29 29 29 29 29 30 30 30 30 30 29 28 27 27 26 25 24 24 23 22 22 21 20 20 20 20 20 19 19 19 19 19 19 19 19 19 18 18 18 18 18
27 28 28 28 29 28 28 29 29 29 30 30 29 28 27 27 26 25 25 24 23 23 22 21 21 21 20 20 20 20 19 19 19 19 19 19 19 19 19 18 18 18 18 18
27 27 27 27 28 28 28 29 29 29 29 29 28 28 27 25 25 25 24 24 23 22 22 21 21 21 20 20 20 20 19 19 19 19 19 19 19 19 19 19 18 18 18 18
26 26 25 28 29 29 28 28 29 28 28 28 28 26 25 24 24 24 24 23 22 22 22 21 21 21 20 20 20 19 19 19 19 19 19 19 19 19 19 19 19 19 18 18
26 26 26 27 27 28 27 27 28 28 28 27 26 26 25 24 24 23 23 22 22 22 22 21 21 21 20 20 20 19 19 19 19 19 19 19 19 19 19 18 19 18 18 18
25 25 25 27 27 27 27 26 27 27 26 26 26 27 27 23 23 22 22 22 21 21 21 21 21 20 20 20 20 19 19 19 19 19 19 19 19 19 18 18 18 18 18 18
24 25 26 26 26 26 25 26 25 25 25 25 25 25 23 22 22 21 21 21 21 20 20 20 20 20 20 19 19 19 19 19 19 19 19 18 18 18 18 18 18 18 18 18
24 24 25 25 25 25 25 23 23 23 23 23 22 21 21 21 21 21 20 20 20 20 20 20 19 19 19 19 19 19 19 19 18 18 18 18 18 18 18 18 18 18 17 17
24 24 23 23 23 22 22 22 22 22 22 21 21 21 20 20 20 20 20 20 19 19 19 19 19 19 19 19 19 18 18 18 18 18 18 18 18 18 18 18 18 18 17 17
22 23 22 22 21 21 21 21 21 21 21 20 20 20 20 19 19 19 19 19 19 19 19 19 19 18 18 18 18 18 18 18 18 18 18 17 17 17 17 17 17 17 17 17
21 22 21 21 20 20 20 20 20 20 20 20 20 20 19 19 19 19 18 18 18 18 18 18 18 18 18 18 18 18 18 18 18 17 17 17 17 17 17 17 17 17 17 17
22 21 22 21 20 19 19 19 19 19 19 19 19 19 19 18 18 18 18 18 18 18 18 18 18 18 18 18 18 18 17 17 17 17 17 17 17 17 17 17 17 17 17 16
19 19 20 19 19 19 19 19 19 19 19 18 18 18 18 18 18 18 17 17 17 17 17 17 17 17 17 17 17 17 17 17 17 17 17 17 17 17 17 17 17 16 16 16
17 17 18 18 18 18 18 18 18 18 18 18 18 17 17 17 17 17 17 17 17 17 17 17 16 16 16 16 16 16 16 17 17 17 17 17 17 17 17 17 17 16 16 16
17 17 18 17 17 17 17 18 18 18 17 17 17 17 17 17 17 16 16 16 16 16 16 16 16 16 16 16 16 16 16 16 16 16 16 16 16 16 17 16 16 16 16 16
17 17 17 17 17 17 17 17 17 17 17 17 17 16 16 16 16 16 16 16 16 16 16 16 16 15 16 15 15 16 16 16 16 16 16 16 16 16 16 16 16 16 16 15
16 16 17 17 17 17 17 17 17 17 17 16 16 16 16 15 15 15 15 15 15 15 15 15 15 15 15 15 15 15 16 16 16 16 16 16 16 16 16 16 16 15 15 15
16 16 16 16 17 17 16 16 16 16 16 16 16 15 15 15 15 15 15 15 15 15 15 15 15 15 15 15 15 15 15 15 15 15 15 15 15 15 15 15 15 15 15 15
15 15 16 16 16 16 16 16 16 16 15 15 15 15 15 15 14 14 14 14 14 14 15 15 15 15 15 15 15 15 15 15 15 15 15 15 15 15 15 15 15 14 14 14
15 15 15 15 15 15 15 15 15 15 15 15 15 14 14 14 14 14 14 14 14 14 14 14 14 14 14 15 14 15 15 15 15 14 14 14 14 14 14 14 14 14 14 13
15 15 15 15 15 15 15 15 15 15 14 14 14 14 14 14 14 14 14 14 14 14 14 14 14 14 14 14 14 14 14 14 14 14 14 14 14 14 14 13 13 13 13 13
14 14 14 14 14 14 14 14 14 14 14 14 14 14 14 13 14 14 14 14 14 14 14 14 14 14 14 14 14 14 14 14 14 14 14 13 13 13 13 13 13 13 12 12
13 13 14 14 14 14 14 14 13 13 13 13 13 13 13 13 14 14 14 14 13 13 13 13 13 14 14 13 13 13 13 13 13 13 13 13 13 13 13 13 12 12 12 12
13 13 13 13 13 13 13 13 13 13 13 13 13 13 13 13 13 14 13 13 13 13 13 13 13 13 13 13 13 13 13 13 13 13 13 13 12 12 12 12 12 12 11 11
12 12 12 12 13 13 13 13 13 12 13 13 13 12 13 13 13 13 13 13 13 13 13 13 12 12 12 12 12 12 12 12 12 12 12 12 12 12 11 11 11 11 10 10
12 12 12 12 12 12 13 13 13 13 13 13 13 13 13 12 12 12 12 12 12 12 12 12 12 12 11 12 11 11 11 11 11 11 11 11 11 11 10 10 10 10 10 9
12 12 12 12 12 12 12 12 12 12 12 12 12 12 12 12 12 12 12 12 11 11 11 11 11 11 11 11 11 11 11 11 11 10 10 10 10 10 10 9 9 9 9 9

GEFSNGP_850_meantemp_282.txt.gz
Temperature
30 31 32 32 32 32 32 32 31 31 31 31 31 31 31 31 30 29 28 28 27 26 25 24 23 23 22 22 21 21 21 20 19 19 19 19 19 19 18 18 18 19 19 19
29 30 31 31 31 32 32 32 32 31 31 32 31 31 30 30 30 29 28 27 26 25 24 23 23 23 22 22 21 21 21 20 20 19 19 19 19 18 18 18 18 18 18 18
27 29 30 30 31 32 32 32 32 31 31 31 30 30 30 29 29 28 28 27 26 25 24 23 23 23 22 22 21 21 21 20 20 19 19 19 19 18 18 18 18 18 18 18
27 27 27 30 32 32 32 32 32 32 31 31 30 29 29 29 28 28 27 26 25 25 24 23 23 22 22 21 21 21 20 20 20 19 19 19 18 18 18 18 18 18 18 18
27 27 28 29 31 32 31 31 32 31 31 30 30 29 28 28 28 27 26 25 25 24 24 23 23 22 22 21 21 20 20 20 20 19 19 19 18 18 18 18 18 18 18 18
26 26 26 29 31 32 31 29 31 31 31 30 30 29 28 27 27 26 25 25 24 24 23 23 22 22 21 21 20 20 20 20 20 19 19 19 19 18 18 18 18 18 18 18
25 25 27 29 31 31 28 28 30 30 30 29 29 28 27 26 25 25 24 24 23 23 23 22 22 21 21 20 20 20 20 19 19 19 19 19 19 18 18 18 18 18 18 18
25 24 26 29 29 29 27 28 28 28 28 27 26 26 26 25 24 24 23 23 22 22 22 22 21 21 20 20 20 19 19 19 19 19 19 18 18 18 18 18 18 17 17 17
26 25 26 27 27 27 27 27 27 27 26 26 26 25 25 24 23 23 23 22 22 21 21 21 21 20 20 20 19 19 19 19 19 18 18 18 18 18 18 18 17 17 17 17
25 26 26 26 26 26 26 26 26 26 25 25 24 24 23 23 22 22 22 21 21 21 20 20 20 20 20 19 19 19 19 19 18 18 18 18 18 18 18 18 17 17 17 17
25 25 25 25 25 25 25 25 25 25 25 24 24 23 23 22 21 21 21 20 20 20 19 19 19 19 19 19 19 18 18 18 18 18 18 18 18 18 18 18 18 18 18 18
23 24 24 24 23 23 23 24 24 24 23 23 23 22 22 21 21 20 20 20 20 19 19 19 18 18 18 18 18 18 18 17 17 17 18 18 18 18 18 18 18 18 18 18
22 22 22 22 22 22 22 22 23 22 22 22 22 22 21 21 20 20 20 19 19 19 18 18 18 18 18 18 17 17 17 17 17 17 17 17 17 17 17 17 17 17 17 17
20 20 21 21 21 21 21 21 22 22 21 21 21 21 21 20 20 19 19 19 19 18 18 17 17 17 17 17 17 17 17 17 17 17 17 17 17 17 17 17 17 17 17 17
19 19 20 20 20 21 21 21 21 21 21 20 20 20 20 20 19 19 18 18 18 18 17 17 17 17 17 17 16 16 16 16 17 17 17 17 17 17 17 17 17 17 17 17
19 19 19 19 20 20 20 20 20 20 20 20 19 19 19 19 19 18 18 18 17 17 17 17 16 16 16 16 16 16 16 16 17 17 17 17 17 17 17 17 17 17 17 17
18 18 19 19 19 19 19 19 19 19 19 19 19 18 18 18 18 18 17 17 17 17 16 16 16 16 16 16 16 16 16 16 16 16 16 16 17 17 17 17 17 17 16 16
18 18 18 18 18 19 19 19 19 19 19 19 18 18 18 17 17 17 17 16 16 16 16 16 16 16 16 16 16 16 16 16 16 16 16 16 16 16 16 16 16 16 16 16
18 18 17 18 18 18 18 18 18 18 18 18 18 17 17 17 17 16 16 16 16 16 15 15 15 15 15 15 15 15 16 16 16 16 16 16 16 16 16 16 16 15 15 15
17 17 17 17 18 18 18 17 17 17 17 17 17 17 16 16 16 16 16 16 16 15 15 15 15 15 15 15 15 15 15 16 16 16 15 15 15 15 15 15 15 15 15 14
17 17 17 17 17 17 17 17 17 17 17 16 16 16 16 16 15 15 15 15 15 15 15 15 15 15 15 15 15 15 15 15 15 15 15 15 15 15 15 14 14 14 14 14
16 16 16 16 16 16 16 16 16 16 16 16 16 15 15 15 15 15 15 15 15 15 15 15 14 14 14 14 14 14 15 14 15 15 15 15 14 14 14 14 14 13 13 13
15 15 15 15 15 15 15 15 15 15 15 15 15 15 15 15 15 15 15 15 15 15 14 14 14 14 14 14 14 14 14 14 14 14 14 14 14 14 13 13 13 13 13 13
15 15 15 15 14 14 14 15 15 15 15 15 15 15 14 14 14 14 14 14 14 14 14 14 14 14 14 14 14 14 14 13 13 14 14 13 13 13 13 12 12 12 12 12
14 14 14 14 14 14 14 14 14 14 14 14 14 14 14 14 14 14 14 14 14 14 13 13 13 13 13 13 13 13 13 13 12 12 13 13 12 12 12 12 12 11 11 11
14 14 14 14 14 14 14 14 14 14 14 14 14 14 14 14 14 14 14 13 13 13 13 13 13 13 13 13 12 12 12 12 12 12 12 12 12 12 11 11 11 11 10 10
13 13 13 13 14 14 14 14 14 14 14 14 14 14 14 14 13 13 13 13 13 13 13 13 13 12 12 12 12 12 12 12 11 11 11 11 11 11 11 10 10 10 9 9

GEFSNGP_850_meantemp_288.txt.gz
Temperature
22 24 25 25 25 25 24 23 22 23 23 23 23 23 24 25 25 24 24 24 24 24 23 23 23 22 22 22 21 21 20 20 20 20 19 19 19 19 19 18 18 18 18 18
22 24 25 25 25 25 25 25 24 24 24 23 24 24 24 24 24 24 24 24 24 24 23 23 22 22 22 22 21 21 21 20 20 20 19 19 19 19 19 18 18 18 18 18
20 22 24 23 24 25 25 25 25 24 24 23 23 23 23 24 24 24 24 24 24 24 24 23 23 22 22 22 21 21 20 20 20 20 20 19 19 19 19 18 18 18 18 18
18 21 22 22 23 25 25 25 24 24 24 23 23 24 25 25 25 24 24 24 24 24 24 23 23 22 22 22 21 21 21 20 20 20 20 19 19 19 19 18 18 18 18 18
17 19 21 22 24 25 24 23 24 23 23 24 24 24 23 24 25 25 25 24 24 24 24 23 23 22 22 21 21 21 21 20 20 20 20 19 19 19 19 18 18 18 18 18
18 20 20 22 24 25 24 22 23 23 22 23 23 21 21 24 24 24 24 24 24 23 23 23 22 22 22 21 21 21 21 20 20 20 19 19 19 19 18 18 18 18 18 18
18 19 20 21 23 24 22 21 22 23 23 23 22 22 23 24 24 24 24 24 23 23 22 22 22 22 21 21 20 20 20 20 20 19 19 19 19 18 18 18 18 18 18 17
17 18 19 21 22 21 20 22 22 23 23 23 23 23 23 23 23 23 23 23 23 23 22 21 21 21 21 20 20 20 20 20 19 19 19 19 18 18 18 18 17 17 17 17
17 18 19 21 21 22 22 22 22 22 23 23 23 23 23 23 23 23 23 22 22 22 22 21 21 21 21 20 20 20 19 19 19 19 18 18 18 18 17 17 17 17 17 17
17 18 19 20 21 22 22 22 22 22 23 23 23 22 22 22 22 22 22 22 22 21 21 21 20 20 20 20 20 19 19 19 18 18 18 18 17 17 17 17 17 16 17 17
16 17 19 19 20 21 21 22 22 22 22 22 22 22 22 22 22 21 21 21 21 21 20 20 20 19 19 19 19 19 19 18 18 18 17 17 17 17 17 17 16 16 16 16
16 17 17 18 19 20 20 20 21 21 21 21 21 21 21 21 21 21 21 20 20 20 20 19 19 19 19 18 18 18 18 18 17 17 17 17 16 16 16 16 16 16 16 16
18 18 18 19 19 19 19 19 20 20 20 20 20 21 21 20 20 20 20 20 20 20 19 19 19 18 18 18 18 18 17 17 17 16 16 16 16 16 16 16 16 16 16 16
19 19 18 18 18 19 19 19 19 19 19 19 20 20 20 20 19 19 19 19 19 19 19 19 18 18 18 18 17 17 17 17 16 16 16 16 15 15 15 15 15 15 15 15
18 18 18 18 18 18 18 18 18 18 18 18 19 19 19 19 19 19 19 19 19 18 18 18 18 18 17 17 17 17 16 16 16 16 16 15 15 15 15 15 15 15 15 15
18 18 18 17 17 17 17 17 17 17 17 18 18 18 18 18 18 18 18 18 18 18 18 18 18 17 17 17 17 16 16 16 16 16 15 15 15 15 15 15 14 15 15 15
17 17 17 17 16 16 16 17 16 16 17 17 17 17 17 17 17 17 17 17 17 17 17 17 17 17 17 16 16 16 16 16 16 15 15 15 15 15 15 14 14 14 14 14
17 17 17 16 16 16 16 16 16 16 16 16 16 16 17 17 17 17 17 17 17 17 17 16 16 16 16 16 16 16 16 15 15 15 15 15 15 14 14 14 14 14 14 14
17 17 16 16 16 16 16 16 16 16 16 16 16 16 16 16 16 17 17 17 16 16 16 16 16 15 15 15 15 15 15 15 15 15 14 14 14 14 14 14 14 14 14 14
16 16 16 16 16 16 16 16 16 16 16 16 16 16 16 16 16 16 16 16 16 16 16 15 15 15 15 15 15 14 14 14 14 14 14 14 14 14 14 14 14 13 13 13
16 16 16 15 15 15 16 16 15 15 15 15 15 15 16 15 16 15 15 15 15 15 15 15 15 15 14 14 14 14 14 14 14 14 13 13 13 13 13 13 13 13 12 12
15 15 15 15 15 15 15 15 15 15 15 15 15 15 15 15 15 15 15 15 15 15 15 14 14 14 14 14 14 13 13 13 13 13 13 13 13 13 12 12 12 12 12 12
15 15 15 15 15 15 15 14 14 15 15 15 14 14 14 14 14 14 14 14 14 14 14 14 14 13 13 13 13 13 13 13 13 13 12 12 12 12 12 11 11 11 11 11
14 14 14 14 14 14 14 14 14 14 14 14 14 14 14 14 14 14 14 14 14 13 13 13 13 13 13 13 13 13 12 12 12 12 12 12 11 11 11 11 11 11 11 10
14 14 14 14 14 14 13 13 13 13 13 14 14 14 14 13 13 13 13 13 13 13 13 13 13 13 13 12 12 12 12 12 12 12 11 11 11 11 11 10 10 10 10 10
13 13 13 13 13 13 13 13 13 13 13 13 13 13 13 13 13 13 13 13 12 12 12 12 12 12 12 12 12 12 12 12 11 11 11 11 11 11 10 10 10 10 9 9
13 13 13 13 13 13 13 13 13 13 13 13 13 13 13 12 12 12 12 12 12 12 12 12 12 12 12 12 11 11 11 11 11 11 11 11 10 10 10 10 10 9 9 9

GEFSNGP_850_meantemp_294.txt.gz
Temperature
20 21 21 22 22 21 21 20 20 21 20 21 21 20 21 22 22 22 23 23 22 23 23 22 22 22 22 21 21 21 20 20 20 19 19 19 19 19 18 18 18 18 18 18
20 21 21 22 22 22 22 21 21 21 21 21 21 21 21 22 22 22 23 23 23 23 23 23 23 22 22 21 21 21 20 20 20 19 19 19 19 19 18 18 18 18 18 18
19 20 21 21 21 21 22 21 21 21 21 20 19 20 21 22 22 22 23 23 24 23 23 23 23 22 22 22 21 21 20 20 20 19 19 19 19 18 18 18 18 18 18 18
16 20 21 20 21 21 21 20 20 20 20 19 20 21 22 22 22 23 23 23 24 24 23 23 23 22 22 21 21 20 20 20 20 19 19 19 19 18 18 18 18 17 17 17
15 18 19 20 20 20 21 20 20 20 19 20 20 21 21 22 23 23 24 24 24 23 23 23 22 22 21 21 20 20 20 20 20 19 19 19 19 19 18 18 18 17 17 17
15 18 19 20 21 21 21 20 20 19 19 19 19 19 20 22 23 23 23 23 23 23 23 22 22 21 21 21 20 20 20 20 20 19 19 19 19 18 18 18 17 17 17 17
15 17 17 18 19 20 20 20 20 20 20 19 19 20 22 22 22 23 23 23 23 23 22 22 22 21 21 20 20 20 20 19 19 19 19 18 18 18 18 17 17 17 17 17
14 16 17 18 19 19 18 19 20 20 20 20 21 21 22 22 22 22 22 22 22 22 22 22 21 21 21 20 20 20 19 19 19 19 18 18 18 18 17 17 17 17 17 16
15 16 17 17 18 19 19 19 20 20 21 21 21 21 21 21 21 21 21 21 21 21 21 21 21 21 21 20 20 19 19 19 19 18 18 18 18 17 17 17 17 16 16 16
14 15 16 17 18 19 19 19 20 20 21 21 21 21 21 21 21 20 20 21 20 20 20 20 20 20 20 20 20 19 19 19 18 18 18 18 17 17 17 17 16 16 16 16
14 14 16 18 18 19 19 19 20 20 21 21 21 21 20 20 20 20 20 20 20 20 20 20 20 20 19 19 19 19 19 18 18 18 17 17 17 17 16 16 16 16 16 15
14 15 15 17 18 18 19 19 19 19 20 20 20 20 20 20 20 20 19 19 19 19 19 19 19 19 19 18 18 18 18 18 18 17 17 17 16 16 16 16 15 15 15 15
16 17 17 17 17 18 18 18 18 19 19 19 19 19 19 19 19 19 19 19 19 19 19 18 18 18 18 18 18 18 18 17 17 17 17 16 16 16 15 15 15 15 15 15
16 16 16 17 17 17 18 18 18 18 18 18 18 19 18 18 18 19 19 18 18 18 18 18 18 18 17 17 17 17 17 17 17 16 16 16 16 15 15 15 15 15 14 14
16 16 17 17 17 17 17 17 17 17 18 18 18 18 18 18 18 18 18 18 18 18 17 17 17 17 17 17 17 17 16 16 16 16 16 15 15 15 15 14 14 14 14 14
16 16 16 16 16 16 16 17 17 17 17 17 17 17 17 17 17 17 17 17 17 17 17 17 17 17 17 16 16 16 16 16 16 15 15 15 15 14 14 14 14 14 14 14
15 15 15 15 16 16 16 16 16 16 16 16 16 16 16 16 16 16 16 16 16 16 16 16 16 16 16 16 16 15 15 15 15 15 15 14 14 14 14 14 14 13 13 13
16 16 16 16 16 15 15 15 15 15 15 15 15 15 15 16 16 16 16 16 16 16 16 16 16 16 16 16 15 15 15 15 15 15 14 14 14 14 13 13 13 13 13 13
16 16 16 16 16 15 15 15 15 15 15 15 15 15 15 15 15 15 15 15 15 15 15 15 15 15 15 15 15 14 14 14 14 14 14 14 13 13 13 13 13 12 12 12
15 15 15 15 15 15 15 15 15 15 15 15 15 14 14 14 15 15 15 15 15 14 15 15 14 14 14 14 14 14 14 13 13 13 13 13 13 13 12 12 12 12 12 12
15 15 15 15 15 15 15 14 14 14 14 14 14 14 14 14 14 14 14 14 14 14 14 14 14 14 14 13 13 13 13 13 12 12 12 13 12 12 12 12 12 12 11 11
14 14 14 14 14 14 14 14 14 14 14 14 14 14 14 14 14 14 14 14 13 13 13 13 13 13 13 13 13 13 13 12 12 12 12 12 12 12 12 12 11 11 11 11
14 14 14 14 14 14 14 14 14 14 14 14 13 13 13 13 13 13 13 13 13 13 13 13 13 13 13 13 12 12 12 12 12 12 12 12 12 11 11 11 11 10 10 10
14 13 13 13 13 13 14 13 13 13 13 13 13 13 13 13 13 13 13 13 13 12 12 13 12 12 12 12 12 12 12 12 12 11 11 11 11 11 11 11 10 10 10 9
13 13 13 13 13 13 13 13 13 13 13 13 13 12 12 12 12 12 12 12 12 12 12 12 12 12 12 12 12 12 11 11 11 11 11 11 10 10 10 10 10 9 9 9
13 13 13 13 13 13 13 13 12 12 12 12 12 12 12 12 12 12 12 12 12 12 12 11 11 11 11 11 11 11 11 11 11 11 10 10 10 10 10 9 9 9 9 9
12 12 12 12 12 12 12 12 12 12 12 12 12 12 12 12 11 11 11 11 11 11 11 11 11 11 11 11 11 11 10 10 10 10 10 10 10 10 9 9 9 9 8 8

GEFSNGP_850_meantemp_300.txt.gz
Temperature
29 29 30 29 29 29 30 30 30 30 30 31 30 30 29 28 27 26 26 25 24 24 23 22 22 21 21 21 21 20 20 19 19 19 19 19 19 19 19 18 18 18 18 18
28 29 29 29 29 29 29 30 30 30 30 30 29 28 27 27 27 26 25 25 24 23 22 22 21 21 21 21 21 20 20 19 19 19 19 19 18 18 18 18 18 18 17 17
27 28 28 28 29 29 29 29 29 29 30 29 29 28 27 26 26 25 25 24 23 23 22 21 21 21 21 21 20 20 20 19 19 19 19 18 18 18 18 18 18 18 17 17
27 27 26 28 29 29 29 29 29 29 29 29 28 27 26 25 25 24 24 23 23 23 22 22 21 21 21 20 20 20 20 19 19 18 18 18 18 18 18 18 17 17 17 17
26 26 27 28 28 28 28 28 28 28 28 28 27 27 26 25 24 24 23 23 22 22 22 22 21 21 20 20 20 19 19 19 19 18 18 18 18 18 18 18 17 17 17 17
25 25 26 27 28 27 27 27 27 27 27 27 27 28 28 25 24 23 23 22 22 21 21 21 21 20 20 19 19 19 19 19 19 19 18 18 18 18 18 17 17 17 17 17
25 25 26 27 26 26 26 26 26 26 26 26 26 26 25 24 23 22 21 21 21 21 21 21 20 20 20 19 19 19 19 19 18 18 18 18 18 18 17 17 17 17 16 17
25 25 25 25 25 25 25 24 24 24 24 24 24 23 23 23 22 21 21 21 20 20 20 20 20 20 19 19 19 19 19 18 18 18 18 18 18 17 17 17 17 17 16 16
25 25 23 23 23 22 22 22 22 23 23 23 23 22 22 22 21 21 20 20 20 20 20 20 20 20 19 19 19 19 18 18 18 18 18 17 17 17 17 17 16 16 16 16
23 24 23 22 22 21 21 21 21 21 22 22 22 22 21 21 20 20 20 20 20 19 19 19 19 19 19 19 18 18 18 18 18 18 17 17 17 17 17 17 16 16 16 16
22 22 22 21 21 20 20 20 20 21 21 21 21 21 20 20 19 19 19 19 19 19 19 19 19 18 18 18 18 18 18 17 17 17 17 17 17 17 16 16 16 16 16 16
22 21 21 21 20 19 20 20 20 20 20 20 20 20 19 19 19 19 18 18 18 18 18 18 18 18 18 18 18 18 17 17 17 17 17 16 16 16 16 16 16 16 16 16
20 20 20 19 19 19 19 19 19 19 19 19 19 19 19 18 18 18 18 18 18 17 17 17 17 17 17 17 17 17 17 16 17 16 16 16 16 16 16 16 16 16 16 15
17 17 18 18 18 18 18 18 18 18 18 18 18 18 18 18 18 17 17 17 17 17 17 17 17 16 17 16 16 16 16 16 16 16 16 16 16 16 16 16 15 16 15 15
17 17 18 18 18 18 17 18 18 18 18 18 18 17 17 17 17 17 17 16 16 16 16 16 16 16 16 16 16 16 16 16 16 16 16 16 15 15 15 15 15 15 15 15
17 17 17 17 17 17 17 17 17 17 17 17 17 17 16 16 16 16 16 16 16 16 16 16 16 16 16 15 15 15 15 15 15 15 15 15 15 15 15 15 15 15 14 14
16 17 17 17 17 17 17 17 17 17 16 16 16 16 16 16 15 15 15 15 15 15 15 15 15 15 15 15 15 15 15 15 15 14 14 15 14 14 14 14 14 14 14 14
16 16 16 16 17 17 16 16 16 16 16 16 15 15 15 15 15 15 15 15 14 14 14 14 14 14 14 14 15 15 14 14 14 14 14 14 14 14 14 14 14 14 13 13
16 15 15 16 16 16 16 16 15 15 15 15 15 15 15 15 15 14 14 14 14 14 14 14 14 14 14 14 14 14 14 14 14 14 14 13 13 13 13 13 13 13 13 13
15 15 15 15 15 15 15 15 15 15 14 14 14 14 14 14 14 14 14 14 14 14 13 14 14 14 13 14 14 14 14 14 14 14 13 13 13 13 13 13 13 13 12 12
14 14 14 14 14 14 14 14 14 14 14 14 14 14 14 14 13 13 13 13 13 13 13 13 13 13 13 13 13 13 13 13 13 13 13 13 13 13 13 12 12 12 12 12
14 14 14 14 14 14 14 14 13 13 13 13 13 13 13 13 13 13 13 13 13 13 13 13 13 13 13 13 13 13 13 13 13 13 13 12 12 12 12 12 12 11 11 11
13 13 13 13 13 13 13 13 13 13 13 13 13 13 13 13 13 13 13 12 12 12 12 12 12 12 12 12 12 12 12 12 12 12 12 12 12 11 11 11 11 11 11 11
12 12 12 12 12 12 12 13 13 12 12 13 13 13 13 13 12 12 12 12 12 12 12 12 12 12 12 12 12 12 12 12 12 12 12 12 11 11 11 11 11 10 10 10
12 12 12 12 12 12 12 12 12 12 12 12 12 12 12 12 12 12 12 11 11 11 11 11 11 11 11 11 11 11 11 11 11 11 11 11 11 11 11 10 10 10 10 9
12 12 12 12 12 12 12 12 13 13 13 13 12 12 12 12 12 12 11 11 11 11 11 11 11 11 11 11 11 11 11 11 11 11 10 10 10 10 10 9 9 9 9 9
12 12 12 12 12 12 12 12 12 12 12 12 12 12 12 12 12 11 11 11 11 11 11 11 11 11 11 11 11 10 10 10 10 10 10 10 9 9 9 9 9 9 8 8

GEFSNGP_850_meantemp_306.txt.gz
Temperature
31 32 32 32 32 33 32 32 31 31 31 32 32 32 31 31 30 30 29 28 28 27 26 25 24 24 23 23 23 22 21 21 20 20 20 19 19 19 19 19 18 18 18 18
30 31 31 31 32 33 33 33 32 32 32 32 32 32 31 30 30 29 28 28 27 26 26 25 24 23 23 23 22 22 21 21 20 20 19 19 19 19 19 18 18 18 18 18
28 30 31 30 31 32 32 33 32 31 31 32 31 31 30 29 29 29 28 27 27 26 25 24 24 23 23 22 22 21 21 21 20 20 19 19 19 18 18 18 18 18 18 18
28 28 27 30 33 33 32 32 32 32 32 32 31 30 29 29 28 28 27 27 26 25 25 25 24 23 23 22 22 21 21 21 20 20 19 19 19 18 18 18 18 18 18 18
27 27 28 30 31 32 31 30 31 31 31 31 30 30 29 28 27 27 26 26 25 25 25 24 24 23 22 22 21 21 20 20 20 20 19 19 18 18 18 18 18 18 18 18
26 26 26 29 31 31 31 29 30 30 30 30 30 29 29 27 27 26 26 25 25 24 24 24 23 23 22 21 21 20 20 20 20 19 19 19 18 18 18 18 18 18 18 18
26 26 27 29 30 30 28 28 29 29 29 29 28 28 27 26 25 25 25 24 24 23 23 23 22 22 21 21 20 20 20 20 19 19 19 19 18 18 18 18 17 18 18 18
26 25 26 28 29 28 27 27 27 28 27 27 27 26 26 25 24 24 24 23 23 23 22 22 22 21 21 20 20 20 19 19 19 19 18 18 18 18 18 18 17 17 17 17
26 26 26 27 27 26 26 26 26 26 26 26 26 25 25 24 24 23 23 23 22 22 22 21 21 21 20 20 20 19 19 19 19 18 18 18 18 18 17 17 17 17 17 17
25 26 26 26 26 25 25 25 25 25 25 25 25 24 24 23 23 23 22 22 22 21 21 21 20 20 20 19 19 19 19 18 18 18 18 18 18 17 17 17 17 17 17 17
24 25 25 25 24 24 24 24 24 24 24 24 24 23 23 22 22 22 21 21 21 20 20 20 20 20 19 19 19 18 18 18 18 18 18 18 18 17 17 17 17 17 17 17
24 24 24 23 23 23 23 23 23 23 23 23 22 22 22 21 21 21 20 20 20 20 20 19 19 19 19 18 18 18 18 18 17 18 18 17 17 17 17 17 17 17 17 17
23 23 22 22 22 22 22 22 22 22 22 22 22 21 21 21 20 20 20 19 19 19 19 18 18 18 18 18 18 18 18 17 17 17 17 17 17 17 17 17 17 17 16 16
21 21 21 21 21 21 21 21 21 21 21 21 21 21 20 20 19 19 19 19 19 18 18 18 18 17 17 17 17 17 17 17 17 17 17 17 17 17 17 17 16 16 16 16
20 20 20 20 20 20 20 20 20 20 20 20 20 20 20 19 19 19 18 18 18 18 17 17 17 17 17 17 17 17 17 17 17 17 17 17 17 17 16 16 16 16 16 16
20 20 20 20 20 20 20 20 20 20 20 20 19 19 19 18 18 18 18 18 17 17 17 17 16 16 16 16 16 16 17 17 16 16 16 16 16 16 16 16 16 16 15 15
19 19 19 19 19 19 19 19 19 19 19 19 18 18 18 18 17 17 17 17 17 16 16 16 16 16 16 16 16 16 16 16 16 16 16 16 16 16 16 16 16 16 15 15
18 18 18 18 18 18 18 18 18 18 18 18 18 17 17 17 17 16 16 16 16 16 16 15 15 15 15 15 15 15 15 15 15 15 15 15 15 15 15 15 15 15 15 15
18 18 18 18 18 17 17 18 18 18 18 17 17 17 17 16 16 16 16 15 15 15 15 15 15 15 15 15 15 15 15 15 15 15 15 15 15 15 15 15 15 15 15 14
17 17 17 17 17 17 17 17 17 17 17 17 17 16 16 16 15 15 15 15 15 15 15 15 14 14 14 14 15 14 15 15 15 15 15 15 15 15 15 15 14 14 14 14
17 16 16 16 16 16 16 16 16 16 16 16 16 15 15 15 15 15 15 14 14 14 14 14 14 14 14 14 14 14 14 14 15 15 14 14 14 14 14 14 14 14 13 13
16 15 15 15 16 16 16 16 16 15 15 15 15 15 15 15 15 14 14 14 14 14 14 14 14 14 14 14 14 14 14 14 14 14 14 14 14 14 14 13 13 13 13 12
15 15 15 15 15 15 15 15 15 15 15 15 14 14 14 14 14 14 14 14 14 14 14 13 14 14 13 14 13 13 13 14 14 14 14 14 13 13 13 13 13 12 12 12
14 14 14 14 14 14 14 14 14 14 14 14 14 14 14 14 14 14 14 14 14 14 13 13 13 13 13 13 13 13 13 13 13 13 13 13 13 13 13 12 12 12 11 11
13 13 13 13 14 14 14 14 14 14 14 13 13 13 14 14 13 13 13 13 13 13 13 13 13 13 13 13 12 13 13 13 13 13 13 13 12 12 12 12 11 11 11 11
13 13 13 13 13 13 14 14 14 14 13 13 13 13 13 13 13 13 13 13 13 13 13 13 13 13 12 12 12 12 12 12 12 12 12 12 12 11 11 11 10 10 10 10
13 13 13 13 13 13 14 14 14 14 14 14 14 13 13 13 13 13 13 13 13 13 12 12 12 12 12 12 12 12 12 12 12 12 11 11 11 11 10 10 10 9 9 9